Home > Weather > Luanda > Past weeks

Flag for Angola Past Weather in Luanda, Angola — Yesterday and Last 2 Weeks

Now
70 °F

Passing clouds.


Feels Like: 70 °F
Forecast: 67 / 74 °F
Wind: 2 mph from North

Location: Luanda Airport

Current Time: Jul 24, 2016 at 6:09:24 AM

Latest Report: Jul 24, 2016 at 5:00 AM


Visibility: 4 mi

Pressure: 29.95 "Hg

Humidity: 78%

Dew Point: 63 °F

Location of LuandaLocation

Past Weather in Luanda — Graph

°F

Luanda Temperature Yesterday

Maximum temperature yesterday: 77 °F (at 2:00 PM)
Minimum temperature yesterday: 64 °F (at 3:00 AM)
Average temperature yesterday: 70 °F

High & Low Weather Summary for the Past Weeks

 TemperatureHumidityPressure
High81 °F (Jul 10, 11:00 AM)100% (Jul 9, 10:00 PM)30.07 "Hg (Jul 9, 10:00 PM)
Low64 °F (Jul 15, 5:00 AM)54% (Jul 10, 2:00 PM)29.80 "Hg (Jul 16, 4:00 PM)
Average72 °F80%29.95 "Hg
* Reported Jul 9 5:00 AM — Jul 24 5:00 AM, Luanda, Weather by CustomWeather, © 2016

Note: Actual official high and low records may vary slightly from our data, if they occured in-between our weather recording intervals... More about our weather records

Advertising

Luanda Weather History for the Previous 24 Hours

Scroll right to see more
 ConditionsComfort  
Time TempWeatherWind HumidityBarometerVisibility
5:00 AM
Sun, Jul 24
70 °FPassing clouds.2 mph78%29.95 "Hg4 mi
4:00 AM70 °FPassing clouds.No wind78%29.92 "Hg4 mi
3:00 AM68 °FPassing clouds.No wind88%29.92 "Hg4 mi
2:00 AM68 °FPassing clouds.No wind88%29.95 "Hg5 mi
1:00 AM68 °FPassing clouds.No wind88%29.95 "Hg5 mi
12:00 AM66 °FPassing clouds.2 mph88%29.95 "Hg5 mi
11:00 PM
Sat, Jul 23
66 °FPassing clouds.5 mph88%29.95 "Hg5 mi
10:00 PM68 °FPassing clouds.5 mph83%29.95 "Hg5 mi
9:00 PM70 °FPassing clouds.5 mph83%29.95 "Hg5 mi
8:00 PM70 °FPassing clouds.7 mph83%29.92 "Hg5 mi
7:00 PM72 °FClear.8 mph73%29.89 "Hg5 mi
6:00 PM72 °FClear.7 mph78%29.86 "Hg5 mi
5:00 PM73 °FSunny.9 mph74%29.86 "Hg10 mi
4:00 PM73 °FSunny.10 mph74%29.86 "Hg10 mi
3:00 PM75 °FPassing clouds.10 mph69%29.86 "HgN/A
2:00 PM77 °FScattered clouds.9 mph65%29.89 "HgN/A
1:00 PM75 °FPartly sunny.8 mph69%29.92 "HgN/A
12:00 PM75 °FPartly sunny.5 mph69%29.95 "Hg5 mi
11:00 AM73 °FPartly sunny.2 mph74%29.98 "Hg5 mi
10:00 AM72 °FPartly sunny.5 mph78%30.01 "Hg5 mi
9:00 AM70 °FFog.5 mph83%30.01 "Hg2 mi
8:00 AM70 °FScattered clouds.5 mph83%30.01 "Hg5 mi
7:00 AM68 °FFog.3 mph88%29.98 "Hg2 mi
6:05 AM68 °FFog.5 mph88%29.98 "Hg3 mi
6:00 AM68 °FClear.5 mph88%29.98 "Hg5 mi
Weather by CustomWeather, © 2016

See weather overviewHow to use our weather pages